Voltar ao catálogo

STARLINK-35590

AtivoComunicaçõesVLEO
NORAD 66108·PAYLOAD·🇺🇸 United States

Lançado Oct 19, 2025 de Vandenberg Space Force Base

Loading…

Próximas Passagens (próximas 24 horas)

TLE

AtualizadoSource: CelesTrak SupGP

Época: Sep 14, 2026, 20:50 UTC

1 66108C 25236Y   26257.86854167 -.00003472  00000+0 -10261-3 0  2573
2 66108  53.1572 302.2184 0001237  86.6173 147.9625 15.34378060    12

Acompanhe STARLINK-35590 em tempo real com AllMySat

Download on the App Store